Seinäjoki

Airport
ICAO code: 
EFSI
IATA Code: 
SJY
Summary
ICAO Region: 
EUR
Territory: 
Location: 
Ilmajoki, South Ostrobothnia
Serving: 
Seinajoki
Elevation: 
302 ft
Coordinates: 
Aerial View: 
62° 41' 37.428" N, 22° 49' 44.112" E
Metar
Observation
EFSI 290420Z AUTO 16011KT 9999 OVC038 M04/M07 Q0998
Station
Seinajoki-Ilmajok
Date/Time
2022-01-29 04:20:00
Wind direction
160°
Wind speed
11 kts
Lowest cloud amount
overcast
Temperature
-4°C
Dew point
-7°C
Humidity
79%
QNH
998 hPa
Weather condition
n/a

Seinäjoki Airport is an airport serving Seinäjoki, a city in the Southern Ostrobothnia region of Finland. It is located 6 nm south-southwest of the city, in the municipality of Ilmajoki.

Climatology

Subarctic climate (Köppen climate classification Dfc)

Runways

Designator Length Width Surface Rops
14/32 1543 30 ASP No/No
Airport map: 
Aerial View: 

Accidents and Serious Incidents at or in the vicinity of EFSI

SKYbrary Partners:

Safety knowledge contributed by: